Temperature
27 27 27 28 28 29 29 28 28 28 29 28 27 27 26 25 25 25 24 23 22 21 20 19 19 18 18 18 17 17 17 17 17 16 16 16 16 16 15 15 15 15 15 15
28 28 29 29 29 29 28 28 28 28 29 28 28 27 27 26 26 25 24 23 22 21 20 19 18 18 17 17 17 16 16 16 16 16 16 16 16 15 15 15 15 15 14 14
28 29 29 29 29 29 29 28 28 28 28 28 28 27 27 27 26 24 24 23 22 21 20 19 18 17 17 17 16 16 16 16 16 16 15 15 15 15 15 15 14 14 14 14
28 29 29 29 28 28 28 29 29 28 27 27 27 26 26 26 25 24 23 22 21 20 19 18 18 17 17 16 16 16 16 15 15 15 15 15 15 14 14 14 14 14 14 13
28 29 28 28 29 29 28 29 29 28 27 26 26 25 25 25 24 24 22 21 20 20 19 18 17 17 16 16 16 15 15 15 15 15 14 14 14 14 14 14 14 13 13 13
28 29 29 29 29 29 29 28 28 27 27 25 25 24 24 24 24 23 22 21 20 19 18 18 17 17 16 16 15 15 15 14 14 14 14 14 14 14 13 13 13 13 13 12
27 28 29 29 28 28 28 26 25 24 23 23 24 23 23 24 24 24 22 21 20 19 18 17 17 16 16 15 15 15 14 14 14 14 13 13 13 13 13 13 13 12 12 12
26 26 28 28 28 27 27 27 24 22 23 23 23 23 22 23 23 23 22 21 20 19 18 17 16 16 15 15 14 14 14 13 13 13 13 13 13 13 12 12 12 12 12 12
26 26 28 29 29 28 27 27 27 25 24 24 24 23 22 22 22 22 21 20 19 18 17 17 16 15 15 14 14 14 13 13 13 13 13 13 12 12 12 12 12 12 11 11
27 25 27 28 29 28 27 27 26 24 23 22 23 23 21 21 21 21 21 20 19 18 17 16 15 15 14 14 14 13 13 13 13 12 12 12 12 12 12 11 11 11 11 11
27 25 26 27 26 26 27 26 25 25 24 22 22 22 23 21 21 21 20 19 18 18 16 16 15 14 14 13 13 13 13 12 12 12 12 12 11 11 11 11 11 11 11 11
26 25 24 25 26 27 27 26 25 23 23 23 22 21 23 22 22 21 20 19 18 17 16 15 15 14 13 13 13 12 12 12 12 12 12 11 11 11 11 11 11 11 11 10
25 24 23 23 24 25 25 26 25 25 24 23 22 21 22 22 21 20 19 18 17 17 16 15 14 14 13 13 12 12 12 12 12 12 11 11 11 11 11 11 10 10 10 10
24 23 23 22 23 24 24 25 25 24 23 23 22 22 21 20 20 19 18 18 17 17 16 15 14 13 13 12 12 12 12 11 11 11 11 11 11 11 10 10 10 10 10 10
24 23 23 24 25 25 25 25 25 25 24 23 23 22 21 21 20 19 18 17 17 16 15 14 14 13 12 12 12 12 12 11 11 11 11 11 10 10 10 10 10 10 10 10
23 22 23 23 25 25 25 25 25 25 25 24 23 22 21 21 20 19 18 17 16 16 15 14 13 13 12 12 12 11 11 11 11 11 11 10 10 10 10 10 10 10 9 9
23 22 22 22 24 24 23 24 25 25 24 23 22 21 21 21 19 18 18 17 16 15 15 14 13 13 12 12 11 11 11 11 11 11 10 10 10 10 10 10 9 9 9 9
22 22 22 22 22 21 23 25 25 24 23 23 22 22 21 20 19 18 17 17 16 15 14 13 13 12 12 12 11 11 11 11 11 10 10 10 10 10 10 9 9 9 9 9
23 22 22 22 21 22 23 24 25 23 22 22 22 21 21 19 18 17 16 16 15 14 14 13 13 12 12 11 11 11 11 10 10 10 10 10 10 10 9 9 9 9 9 9
24 23 22 21 21 20 22 24 24 23 21 22 22 21 20 20 19 17 16 15 14 14 13 12 12 12 11 11 11 10 10 10 10 10 10 10 10 9 9 9 9 9 9 9
22 22 22 21 21 21 23 24 24 21 20 21 21 20 20 19 18 16 15 14 13 13 12 12 12 11 11 11 11 10 10 10 10 10 10 10 9 9 9 9 9 9 9 9
22 22 21 21 20 21 23 23 22 20 20 20 20 20 18 17 16 15 14 14 13 12 12 12 12 11 11 11 10 10 10 10 10 10 10 10 9 9 9 9 9 9 9 9
22 22 21 21 20 21 21 21 21 20 20 20 19 19 18 16 16 15 14 13 13 12 12 11 11 11 11 10 10 10 10 10 10 10 10 9 9 9 9 9 9 9 10 10
22 22 21 21 21 21 21 21 21 20 20 19 19 18 17 16 15 14 14 13 12 12 11 11 11 11 11 10 10 10 10 10 10 10 9 9 9 9 9 10 10 10 10 10
21 21 21 21 21 20 20 20 20 19 19 19 18 18 17 16 15 14 13 13 12 12 11 11 11 11 10 10 10 10 10 10 10 10 9 10 10 10 10 10 10 10 10 10
22 21 21 20 21 21 20 19 19 19 19 18 18 17 17 16 15 14 13 13 12 12 12 11 11 11 11 11 10 10 10 10 10 10 10 10 10 10 10 10 10 10 10 10
Wind_Speed
10 11 10 9 11 11 10 10 7 4 5 7 8 6 7 7 8 8 7 7 7 7 7 7 7 7 7 6 6 4 4 3 3 2 2 2 2 1 1 1 2 1 1 2
10 12 9 8 8 10 10 11 8 5 4 5 6 7 9 9 8 7 7 8 8 8 8 8 7 6 6 5 5 4 4 3 3 2 2 2 1 2 2 1 2 1 0 1
9 3 4 7 9 10 11 9 7 7 6 7 9 9 7 7 5 6 5 5 5 6 7 8 7 6 5 5 4 4 3 3 2 2 1 1 1 1 1 1 1 1 1 1
7 5 6 8 9 9 10 7 7 8 11 9 9 10 8 8 7 7 6 5 4 5 6 6 7 7 6 5 4 4 4 3 2 1 1 2 2 1 0 0 1 2 2 1
8 4 7 9 7 8 9 9 10 11 12 12 11 10 7 6 8 7 6 6 5 5 6 6 5 6 5 4 4 4 4 3 2 1 1 0 0 0 1 2 2 1 0 1
10 7 7 7 8 7 8 10 11 11 10 13 10 9 7 5 7 7 7 7 6 5 6 6 6 5 4 4 4 5 5 3 2 2 2 1 1 1 1 1 0 1 0 1
9 9 7 6 9 7 8 9 7 7 7 9 6 6 3 1 3 6 7 8 7 6 6 6 6 6 4 4 5 5 5 4 2 2 2 2 1 0 1 0 0 1 1 1
9 7 6 7 8 7 9 10 8 8 9 8 6 5 2 3 5 6 6 7 8 6 6 6 6 6 5 4 4 5 5 3 2 2 2 2 2 1 1 1 1 1 1 2
7 8 6 5 7 8 9 10 10 11 14 11 6 2 3 6 4 5 6 6 7 6 6 6 6 7 6 5 5 5 4 3 3 2 2 2 1 1 1 1 0 1 1 1
8 10 9 8 8 9 9 9 8 7 8 10 8 4 1 5 4 4 5 6 7 6 6 7 7 7 6 5 5 4 4 3 2 2 1 1 1 1 0 0 0 1 1 2
8 9 10 9 8 8 7 7 7 7 7 7 8 4 0 4 5 4 4 5 5 5 6 6 7 6 6 5 5 4 3 2 2 2 1 1 1 1 1 1 1 1 1 2
6 7 9 9 7 7 7 7 7 7 8 8 8 5 0 4 5 4 5 6 7 6 6 6 6 6 5 5 4 3 2 1 1 2 2 2 1 2 2 2 2 1 1 1
6 5 7 8 6 6 8 8 7 7 7 8 9 4 2 4 5 5 4 6 7 7 6 6 7 6 5 3 3 2 1 1 1 2 2 2 1 2 2 2 2 1 1 1
5 7 9 10 9 8 9 10 8 8 8 7 7 4 4 4 5 5 4 6 7 6 6 6 6 6 4 3 2 1 1 1 1 2 2 2 1 1 1 2 2 2 1 1
5 9 11 11 11 11 10 10 8 8 9 9 6 3 3 5 6 5 5 5 6 5 6 6 6 5 4 3 2 1 0 1 1 1 1 2 2 1 1 1 2 2 2 2
4 7 10 12 12 12 11 10 9 8 7 6 4 0 4 5 5 5 5 5 6 5 5 5 6 5 4 3 2 1 1 2 1 1 1 1 1 0 0 1 1 1 2 3
7 8 10 11 12 13 11 8 8 6 5 4 4 2 5 5 6 6 5 5 5 5 5 4 5 4 4 3 2 1 1 2 2 1 1 1 0 0 1 2 2 2 2 2
10 10 8 10 11 11 6 5 5 3 1 1 2 4 4 5 7 6 4 5 5 5 5 4 4 4 4 3 2 2 1 2 2 2 1 1 0 1 1 1 1 2 2 2
11 10 9 8 10 9 6 5 4 3 2 1 3 5 6 7 7 6 5 5 6 5 5 5 4 4 3 3 2 2 2 2 2 1 0 1 1 1 1 1 1 2 2 2
11 9 9 9 10 9 5 3 3 2 3 2 4 5 6 7 4 4 7 6 7 6 6 4 4 4 3 3 2 1 1 2 1 1 1 1 1 1 1 1 1 2 2 3
8 9 11 11 10 6 3 3 3 4 1 3 4 5 5 3 5 9 9 8 7 6 6 5 4 4 3 3 2 2 1 1 1 1 1 0 1 1 2 1 1 2 2 3
8 7 8 8 8 5 1 1 1 3 4 3 5 7 8 10 12 11 10 8 7 6 5 5 4 3 3 2 2 2 2 2 2 1 0 0 0 2 2 1 2 2 3 4
6 4 2 2 1 1 2 3 4 4 4 4 5 9 11 11 10 10 9 8 7 7 6 4 4 4 3 2 2 2 2 2 2 1 1 1 1 1 1 2 2 3 3 3
6 3 3 3 3 3 2 4 4 4 4 6 7 9 11 10 11 10 9 8 7 7 6 4 4 4 3 2 2 2 3 2 2 1 1 1 2 2 2 2 2 2 2 3
8 4 5 5 4 3 2 3 3 5 6 8 8 8 9 10 11 10 9 8 6 6 5 4 4 3 3 2 2 2 2 2 1 1 1 2 2 3 2 2 2 2 2 2
9 6 6 4 3 3 4 4 4 6 8 8 8 8 9 9 10 10 9 7 6 6 5 4 4 4 3 3 2 2 3 3 2 1 2 3 2 2 2 2 2 2 3 4
Wind_Direction
226 236 244 242 245 258 271 272 275 266 230 214 220 209 190 198 190 182 165 155 161 159 148 136 130 133 137 133 140 150 156 154 165 164 185 192 197 177 173 141 123 135 20 345
238 236 248 255 252 265 268 266 268 255 228 248 244 220 204 198 196 177 176 171 168 157 145 137 145 141 132 135 145 151 161 166 178 169 184 186 170 198 171 122 112 123 32 311
255 275 265 268 263 263 264 263 270 278 271 241 247 240 221 199 180 170 170 158 153 159 154 153 150 140 146 146 149 155 151 158 175 179 167 149 165 212 178 144 125 62 343 322
266 265 259 261 262 267 274 276 274 271 270 265 253 254 227 214 190 180 173 164 171 152 151 147 147 151 159 153 147 139 135 143 161 163 166 200 204 202 187 64 93 61 1 346
273 263 264 265 271 276 290 296 281 271 263 268 262 268 247 205 199 188 172 167 164 142 147 151 154 149 143 138 136 128 126 131 142 154 133 229 287 105 73 57 75 64 55 34
277 273 262 274 282 278 284 285 280 276 269 262 267 268 257 228 202 183 176 170 148 147 150 151 147 136 128 125 125 126 122 120 116 108 95 84 64 57 71 47 190 256 162 79
269 253 247 257 270 268 266 272 277 275 265 266 278 266 264 211 153 158 160 155 142 141 142 137 135 129 124 121 117 115 119 112 108 99 85 77 69 317 197 205 65 324 352 70
283 268 240 237 254 269 262 267 270 280 281 279 262 253 220 98 93 106 118 133 140 144 142 132 126 125 120 113 112 105 101 107 111 103 94 75 57 26 41 31 12 357 8 33
289 289 282 265 260 264 269 272 275 275 279 284 267 233 110 98 102 119 121 136 144 142 138 126 118 119 118 111 107 109 108 107 103 95 91 100 87 43 28 30 339 18 17 342
294 292 287 289 270 251 260 281 295 285 291 289 288 287 214 166 183 180 149 140 140 145 136 125 120 117 118 114 104 105 108 102 102 102 90 91 79 46 304 296 19 47 33 26
298 290 284 282 279 280 266 261 277 290 289 287 291 293 251 157 165 164 154 150 144 143 133 126 128 125 124 117 106 104 102 104 114 126 119 77 35 320 332 23 29 46 46 29
305 287 284 284 292 290 277 271 267 272 281 287 289 288 26 122 132 140 137 138 135 130 129 129 125 124 123 114 112 108 123 150 160 145 130 99 43 9 5 24 32 39 56 18
321 297 281 277 279 272 276 272 267 273 274 279 284 272 108 118 117 114 123 131 131 136 139 138 132 135 128 126 130 125 140 164 152 134 127 106 70 28 13 7 1 5 20 342
298 280 283 280 286 291 287 283 276 271 270 273 275 250 168 155 140 137 143 136 137 145 147 143 135 131 135 140 135 137 152 158 144 125 114 109 105 71 36 9 358 356 354 323
271 274 282 283 281 281 284 283 278 272 279 283 284 264 177 155 149 148 142 137 144 148 145 140 138 137 145 147 157 163 128 84 90 103 106 114 121 111 77 354 331 338 345 343
276 276 286 288 287 284 284 286 283 278 276 275 273 287 117 119 133 138 137 149 144 148 148 145 144 145 152 157 164 165 122 112 132 132 111 96 86 31 332 323 319 342 1 357
275 275 282 282 284 285 276 280 279 279 284 293 297 144 138 139 141 145 155 156 148 152 147 143 148 148 151 154 157 169 122 135 142 141 136 146 134 12 11 1 10 5 0 342
258 270 275 278 284 275 283 296 296 298 315 344 146 148 148 132 132 127 131 143 140 143 140 132 131 136 135 147 162 159 149 140 147 157 174 194 68 21 46 28 9 341 333 324
233 246 262 270 271 271 269 273 289 300 281 209 160 145 138 135 138 131 122 123 128 127 118 117 123 130 138 148 157 151 135 137 146 161 143 68 19 28 22 12 339 330 314 304
229 224 243 259 270 271 275 287 321 290 230 162 160 164 162 165 187 142 124 118 116 112 112 119 127 126 128 129 124 134 151 146 140 114 71 66 22 1 317 300 303 312 301 290
234 232 238 250 258 261 267 293 286 267 153 115 155 156 153 141 100 118 123 117 115 115 120 126 125 124 124 129 144 175 177 143 125 120 106 76 45 314 273 281 296 288 291 300
261 253 248 252 254 249 320 288 314 111 111 110 129 133 124 111 114 123 125 123 125 126 128 126 120 119 121 139 164 172 158 134 131 132 110 21 327 310 345 352 297 280 274 279
272 279 300 290 249 119 57 97 127 134 131 126 131 129 127 128 132 131 129 131 135 133 130 131 135 129 134 153 163 159 151 159 161 164 183 296 307 306 305 287 279 280 282 286
262 274 265 259 197 183 176 147 133 127 136 131 133 133 136 137 138 135 137 140 141 137 138 145 149 143 137 148 161 152 157 165 169 178 212 255 260 265 262 262 272 287 314 320
285 273 270 264 223 200 146 112 120 127 135 137 136 137 138 140 141 141 142 144 145 142 148 156 153 143 143 153 153 143 145 154 165 180 248 269 270 271 268 278 299 295 305 300
264 254 254 255 224 229 184 177 161 151 146 142 141 142 141 142 142 142 144 144 148 148 153 155 155 157 156 155 152 150 159 160 165 214 259 275 277 275 267 248 269 285 247 242
Height
1489 1490 1488 1482 1479 1477 1478 1479 1480 1477 1473 1478 1484 1486 1489 1490 1493 1495 1498 1503 1505 1509 1511 1514 1515 1517 1519 1521 1523 1525 1527 1527 1528 1529 1530 1531 1532 1533 1533 1534 1534 1534 1534 1534
1485 1485 1479 1475 1475 1476 1478 1481 1480 1477 1473 1477 1482 1485 1484 1487 1489 1492 1496 1500 1503 1506 1509 1512 1515 1516 1517 1520 1522 1523 1525 1525 1526 1527 1528 1529 1530 1531 1531 1532 1532 1531 1531 1531
1483 1480 1476 1477 1477 1478 1477 1479 1479 1479 1476 1475 1481 1486 1484 1485 1488 1492 1495 1500 1503 1506 1508 1512 1514 1516 1517 1518 1520 1521 1522 1523 1525 1525 1526 1527 1528 1529 1529 1529 1529 1529 1529 1529
1478 1476 1476 1478 1478 1477 1481 1472 1474 1478 1483 1483 1482 1495 1487 1483 1486 1491 1494 1499 1502 1504 1507 1510 1512 1515 1516 1517 1519 1520 1520 1521 1522 1523 1524 1525 1525 1526 1526 1527 1527 1527 1527 1527
1479 1476 1478 1479 1476 1475 1477 1472 1474 1476 1480 1486 1485 1492 1491 1482 1487 1490 1494 1498 1501 1504 1506 1509 1511 1514 1515 1516 1517 1518 1519 1519 1521 1522 1523 1523 1523 1524 1525 1525 1525 1525 1525 1525
1477 1475 1475 1475 1474 1474 1474 1476 1476 1477 1482 1497 1490 1495 1496 1485 1486 1489 1493 1497 1500 1503 1505 1507 1510 1511 1513 1515 1516 1517 1518 1519 1520 1520 1521 1521 1522 1522 1523 1523 1523 1523 1523 1523
1482 1476 1473 1474 1477 1476 1477 1486 1498 1504 1505 1502 1490 1495 1495 1485 1483 1487 1491 1494 1498 1502 1505 1506 1508 1511 1513 1514 1515 1516 1517 1518 1519 1519 1520 1520 1520 1521 1521 1521 1522 1522 1522 1522
1490 1486 1474 1473 1476 1480 1479 1484 1502 1515 1511 1499 1493 1497 1494 1486 1487 1489 1492 1495 1499 1502 1504 1506 1508 1510 1513 1514 1515 1515 1516 1517 1518 1519 1519 1519 1519 1519 1520 1520 1520 1521 1521 1521
1488 1486 1471 1470 1471 1474 1479 1480 1479 1491 1492 1496 1493 1492 1492 1490 1492 1492 1494 1496 1499 1502 1504 1507 1509 1510 1512 1514 1514 1515 1515 1516 1517 1518 1518 1518 1518 1519 1519 1519 1519 1519 1519 1519
1480 1487 1476 1471 1470 1471 1474 1476 1482 1490 1503 1507 1495 1494 1498 1495 1494 1494 1495 1497 1500 1503 1505 1507 1509 1510 1512 1513 1514 1515 1515 1516 1517 1517 1517 1518 1518 1518 1518 1518 1518 1518 1518 1517
1480 1488 1483 1476 1477 1477 1476 1479 1482 1485 1489 1505 1509 1504 1487 1488 1490 1494 1496 1498 1500 1503 1505 1507 1509 1511 1512 1513 1514 1514 1515 1516 1517 1517 1517 1518 1518 1518 1518 1517 1517 1517 1517 1516
1481 1486 1489 1482 1474 1471 1472 1476 1481 1494 1495 1491 1499 1504 1485 1486 1490 1493 1495 1498 1500 1503 1506 1507 1509 1511 1512 1513 1514 1515 1516 1516 1516 1517 1517 1517 1517 1517 1517 1516 1516 1516 1516 1516
1484 1489 1497 1492 1486 1478 1476 1473 1475 1480 1486 1492 1499 1502 1487 1488 1491 1494 1496 1498 1501 1504 1506 1508 1510 1511 1513 1514 1515 1515 1516 1516 1516 1516 1516 1516 1517 1517 1517 1516 1516 1515 1515 1515
1486 1489 1495 1500 1492 1481 1479 1476 1473 1478 1486 1489 1490 1492 1491 1490 1492 1495 1497 1498 1501 1504 1506 1508 1510 1512 1513 1514 1515 1515 1516 1516 1516 1516 1516 1516 1516 1516 1516 1515 1515 1515 1514 1514
1485 1489 1485 1481 1476 1475 1475 1474 1472 1475 1477 1483 1483 1484 1487 1489 1491 1495 1497 1499 1501 1504 1506 1508 1510 1511 1513 1514 1515 1515 1515 1516 1516 1516 1516 1516 1516 1516 1515 1515 1515 1514 1514 1513
1484 1488 1486 1483 1476 1473 1473 1470 1470 1472 1472 1476 1479 1484 1485 1488 1492 1494 1496 1499 1501 1504 1506 1508 1509 1511 1512 1513 1514 1515 1515 1515 1515 1516 1516 1516 1515 1515 1515 1514 1514 1514 1513 1512
1485 1487 1490 1488 1478 1475 1479 1471 1470 1470 1470 1475 1480 1483 1484 1488 1492 1495 1497 1499 1501 1504 1505 1507 1509 1510 1511 1512 1513 1514 1514 1515 1515 1515 1515 1515 1515 1515 1514 1514 1513 1513 1512 1512
1485 1486 1487 1486 1486 1494 1478 1465 1465 1469 1472 1474 1477 1480 1484 1488 1492 1495 1497 1499 1501 1503 1505 1507 1508 1509 1511 1512 1513 1514 1514 1514 1514 1515 1515 1515 1515 1514 1514 1513 1513 1512 1512 1511
1477 1482 1486 1487 1489 1483 1472 1466 1466 1471 1475 1474 1477 1480 1484 1488 1492 1495 1498 1499 1502 1504 1505 1507 1508 1509 1510 1512 1513 1513 1514 1514 1514 1515 1515 1514 1514 1514 1513 1513 1512 1512 1511 1511
1471 1475 1482 1484 1489 1491 1476 1466 1466 1471 1479 1475 1478 1481 1483 1486 1490 1495 1498 1500 1502 1504 1505 1507 1508 1509 1510 1511 1512 1513 1513 1513 1514 1514 1514 1514 1514 1513 1513 1513 1512 1512 1511 1510
1474 1475 1479 1481 1484 1478 1469 1466 1467 1480 1482 1477 1478 1481 1484 1486 1490 1495 1498 1500 1502 1504 1505 1507 1508 1509 1510 1511 1511 1512 1513 1513 1514 1514 1514 1514 1514 1513 1513 1512 1512 1511 1511 1510
1473 1474 1475 1476 1482 1483 1468 1467 1471 1477 1477 1478 1479 1481 1485 1488 1491 1495 1498 1501 1503 1504 1506 1507 1508 1509 1510 1511 1511 1512 1513 1513 1514 1514 1514 1514 1514 1514 1513 1513 1512 1511 1511 1510
1469 1470 1471 1474 1477 1472 1470 1471 1473 1475 1476 1478 1481 1482 1486 1489 1493 1496 1499 1501 1503 1505 1506 1508 1509 1510 1510 1511 1512 1512 1513 1513 1513 1514 1514 1514 1514 1514 1513 1513 1512 1511 1511 1510
1468 1466 1468 1470 1469 1470 1470 1471 1473 1476 1478 1479 1482 1484 1486 1490 1493 1496 1499 1501 1503 1505 1507 1508 1509 1510 1511 1511 1512 1512 1512 1513 1513 1514 1514 1514 1514 1513 1513 1513 1512 1511 1511 1510
1469 1468 1467 1468 1469 1470 1471 1473 1474 1476 1478 1480 1483 1485 1488 1490 1494 1496 1499 1502 1504 1505 1507 1508 1509 1510 1511 1511 1512 1512 1512 1513 1513 1514 1514 1514 1514 1513 1513 1512 1511 1510 1509 1509
1466 1466 1467 1468 1468 1469 1471 1473 1475 1477 1479 1481 1484 1487 1489 1491 1494 1497 1499 1502 1504 1505 1507 1508 1509 1510 1511 1512 1512 1513 1513 1513 1513 1514 1514 1514 1513 1513 1512 1511 1510 1509 1508 1507